Regional Weather Roundup
Issued by NWS

Home | Current Version | Previous Version | Graphics & Text | Print | Product List | Glossary On
Versions: 1 2 3 4 5 6 7 8 9 10 11 12 13 14 15 16 17 18 19 20 21 22 23 24 25 26 27 28 29 30 31 32 33 34 35 36 37 38 39 40 41 42 43 44 45 46 47 48 49 50
000
ASUS43 KDTX 160310
RWRMI
MICHIGAN HOURLY REGIONAL WEATHER ROUNDUP
NATIONAL WEATHER SERVICE DETROIT/PONTIAC MI
1100 PM EDT MON SEP 15 2014

NOTE: "FAIR" INDICATES FEW OR NO CLOUDS BELOW 12,000 FEET WITH NO
SIGNIFICANT WEATHER AND/OR OBSTRUCTION TO VISIBILITY.

MIZ047>049-052>055-059>063-066>070-074>076-081>083-160400-
SOUTHEAST LOWER MICHIGAN

CITY           SKY/WX    TMP DP  RH WIND       PRES   REMARKS
ADRIAN         CLOUDY    54  52  93 CALM      30.11R
ALMA           CLOUDY    52  51  97 CALM      30.11S
ANN ARBOR      MOCLDY    52  48  86 SW5       30.09R
BAD AXE        CLOUDY    52  52 100 CALM      30.10S
CARO           CLOUDY    52  51  97 CALM      30.10R
DETROIT CITY   MOCLDY    58  51  78 N3        30.08S
DETROIT        MOCLDY    54  52  93 W3        30.09S
FLINT          CLOUDY    54  51  90 N6        30.11R
GROSSE ILE     CLOUDY    55  54  94 W5        30.07S
HILLSDALE      CLOUDY    54  54 100 CALM      30.10S
HOWELL         CLOUDY    53  52  97 N3        30.10R

CITY           SKY/WX    TMP DP  RH WIND       PRES   REMARKS
JACKSON        CLOUDY    53  51  93 CALM      30.10S
LAMBERTVILLE   CLOUDY    54  52  94 CALM      30.11R
LANSING        CLOUDY    53  51  93 CALM      30.11S
LAPEER         DRIZZLE   52  51  95 CALM      30.09F
MASON          MOCLDY    51  49  95 CALM      30.11R
MONROE         CLOUDY    55  54  94 W6        30.08R
MT. CLEMENS    LGT RAIN  55  50  82 NW2       30.07S
PONTIAC        CLOUDY    53  50  89 N7        30.08S
PORT HOPE        N/A     53  50  89 W3        30.08R
PORT HURON     RAIN      54  54 100 CALM      30.09S
TRI CITIES     CLOUDY    54  51  90 NW3       30.11F
TROY           CLOUDY    56  51  85 CALM      30.09F
SAGINAW HB     CLOUDY    52  52 100 NW3       30.10S
$$
MIZ043>046-050>051-056>058-064>065-071>073-077>080-160400-
SOUTHWEST LOWER MICHIGAN

CITY           SKY/WX    TMP DP  RH WIND       PRES   REMARKS
BATTLE CREEK   FOG       50  49  96 CALM      30.11S VSB 1/4
BENTON HARBOR  MOCLDY    53  50  89 NE5       30.13R
BIG RAPIDS     CLEAR     47  47 100 NW3       30.12S FOG
COLDWATER      CLOUDY    55  54  96 CALM      30.11R
FREMONT        FOG       45  44  98 CALM      30.13S VSB<1/4
HOLLAND        MOCLDY    53  51  93 N6        30.14R
GRAND RAPIDS   PTCLDY    52  52 100 NW5       30.13R
IONIA          CLOUDY    53  53  98 CALM      30.11R
KALAMAZOO      CLOUDY    54  51  90 N5        30.12S FOG
LUDINGTON      FOG       43  42  97 CALM      30.13S VSB 1/4
MARSHALL       PTCLDY    51  51  98 CALM      30.10S FOG
MOUNT PLEASANT PTCLDY    51  49  96 CALM      30.11S
MUSKEGON       CLEAR     51  48  89 N3        30.14S
SOUTH HAVEN    FOG       50  50  99 CALM      30.13R VSB 1/4
$$
MIZ016>042-160400-
NORTHERN LOWER MICHIGAN

CITY           SKY/WX    TMP DP  RH WIND       PRES   REMARKS
ALPENA         PTCLDY    47  45  93 W3        30.09S
BEAVER ISLAND  MOCLDY    54  46  75 N5        30.11S
BELLAIRE       MOCLDY    44  42  95 CALM      30.12S
CADILLAC       FOG       44  44 100 CALM      30.11S VSB 1/4
CHARLEVOIX     MOCLDY    57  46  68 NW7       30.12F
FRANKFORT      PTCLDY    47  44  89 CALM      30.12S
GAYLORD        PTCLDY    45  41  86 W3        30.11S
GRAYLING       FOG      N/A N/A N/A SW3       30.12S VSB 1/4
HARBOR SPRINGS CLOUDY    53  46  77 CALM      30.09S
HOUGHTON LAKE  FOG       43  43 100 NW3       30.12R VSB 1
MANISTEE       CLOUDY    45  39  81 CALM      30.13S VSB 1/4
OSCODA           N/A     47  47 100 CALM      30.09S FOG
PELLSTON       CLOUDY    47  46  97 CALM      30.09F
ROGERS CITY    MOCLDY    49  47  93 CALM      30.10S
TRAVERSE CITY  PTCLDY    46  43  89 CALM      30.11S
$$
MIZ007>008-015-160400-
EASTERN UPPER MICHIGAN

CITY           SKY/WX    TMP DP  RH WIND       PRES   REMARKS
KINROSS        CLEAR     46  45  93 W7        30.09S
MACKINAC ISLAN PTCLDY    50  44  80 N5        30.09S
NEWBERRY       CLOUDY    47  44  89 W8        30.10S
S. S. MARIE    CLEAR     49  44  83 NW5       30.08S
MUNISING         N/A     46  42  86 S5        30.11S
$$
MIZ004>006-011>014-085-160400-
CENTRAL UPPER MICHIGAN

CITY           SKY/WX    TMP DP  RH WIND       PRES   REMARKS
MANISTIQUE     MOCLDY    47  45  94 NW3       30.11S
ESCANABA       CLOUDY    48  46  93 CALM      30.12S
MENOMINEE      CLEAR     52  43  71 N10       30.12R
SAWYER-GWINN   CLEAR     44  39  82 W5        30.12R
$$
MIZ001>003-009>011-084-160400-
WESTERN UPPER MICHIGAN

CITY           SKY/WX    TMP DP  RH WIND       PRES   REMARKS
IRON MOUNTAIN  CLEAR     41  38  89 CALM      30.13S
HOUGHTON       CLEAR     46  39  76 W12       30.10S
COPPER HARBOR    N/A     50  36  58 NW9       30.07F
IRONWOOD       CLEAR     37  36  93 SW3       30.13S
$$

ABBREVIATIONS USED IN REMARKS
   TC - TEMPERATURE IN CELSIUS
  WCI - WIND CHILL INDEX
   HX - HEAT INDEX
  VSB - VISIBILITY



USA.gov is the U.S. government's official web portal to all federal, state and local government web resources and services.